Flag for U.S.A. Weather past 2 weeks in Germantown, Maryland, U.S.A.

Now
79 °F

Sunny.


Feels Like: 81 °F
Forecast: 64 / 85 °F
Wind: No wind

Location: Frederick Municipal Airport

Current Time: Jul 26, 2014 at 11:27:15 AM

Latest Report: Jul 26, 2014 at 10:55 AM


Visibility: 10 mi

Pressure: 30.03 "Hg

Humidity: 65%

Dew point: 66 °F

Location of GermantownLocation

Historic Weather in Germantown — Graph

°F

Germantown temperature yesterday

Maximum temperature yesterday: 82 °F (at 3:45 PM)
Minimum temperature yesterday: 55 °F (at 5:20 AM)
Average temperature yesterday: 66 °F

Past Weeks' High & Low Weather Summary

 TemperatureHumidityPressure
High95 °F (Jul 23, 3:45 PM)100% (Jul 11, 11:20 PM)30.28 "Hg (Jul 11, 11:20 PM)
Low55 °F (Jul 18, 4:00 AM)39% (Jul 17, 5:50 PM)29.76 "Hg (Jul 15, 4:45 PM)
Average71 °F90%30.06 "Hg
* Reported Jul 11 9:45 AM — Jul 26 9:45 AM, Germantown, Weather by CustomWeather, © 2014

Note: Actual official high and low records may vary slightly from our data, if they occured in-between our weather recording intervals... More about our weather records

Advertising

Germantown weather history for previous 24 hours

 ConditionsComfort  
Time TempWeatherWind HumidityBarometerVisibility
9:45 AM
Jul 26
70 °FMore clouds than sun.No wind88%30.04 "Hg10 mi
8:45 AM70 °FBroken clouds.No wind88%30.04 "Hg10 mi
7:45 AM66 °FScattered clouds.No wind100%30.03 "Hg10 mi
6:45 AM66 °FPassing clouds.No wind100%30.02 "Hg10 mi
6:20 AM64 °FPassing clouds.No wind100%30.03 "Hg10 mi
6:00 AM64 °FOvercast.No wind100%30.02 "Hg10 mi
5:40 AM64 °FOvercast.No wind100%30.02 "Hg10 mi
5:20 AM64 °FOvercast.No wind100%30.03 "Hg10 mi
5:00 AM64 °FPassing clouds.No wind100%30.02 "Hg10 mi
4:40 AM64 °FPassing clouds.No wind100%30.02 "Hg10 mi
4:20 AM64 °FPassing clouds.No wind100%30.02 "Hg10 mi
4:00 AM63 °FPassing clouds.No wind100%30.02 "Hg10 mi
3:40 AM64 °FPassing clouds.No wind100%30.02 "Hg10 mi
3:20 AM64 °FMostly cloudy.No wind100%30.02 "Hg10 mi
3:00 AM64 °FPassing clouds.No wind94%30.02 "Hg10 mi
2:40 AM63 °FClear.No wind100%30.02 "Hg10 mi
2:20 AM63 °FPassing clouds.No wind100%30.02 "Hg10 mi
2:00 AM63 °FOvercast.No wind100%30.04 "Hg10 mi
1:40 AM63 °FPassing clouds.No wind100%30.04 "Hg10 mi
1:20 AM63 °FClear.No wind100%30.04 "Hg10 mi
1:00 AM63 °FClear.No wind100%30.05 "Hg10 mi
12:40 AM63 °FClear.No wind100%30.04 "Hg10 mi
12:20 AM63 °FClear.No wind100%30.04 "Hg10 mi
12:00 AM63 °FClear.No wind100%30.04 "Hg10 mi
11:40 PM
Jul 25
63 °FClear.No wind100%30.03 "Hg10 mi
11:00 PM64 °FClear.No wind94%30.03 "Hg10 mi
10:40 PM66 °FClear.No wind88%30.03 "Hg10 mi
10:20 PM64 °FClear.No wind94%30.04 "Hg10 mi
10:00 PM68 °FClear.No wind83%30.04 "Hg10 mi
9:40 PM68 °FClear.No wind83%30.04 "Hg10 mi
9:20 PM70 °FSunny.No wind78%30.04 "Hg10 mi
9:00 PM70 °FSunny.3 mph78%30.04 "Hg10 mi
8:40 PM72 °FSunny.3 mph69%30.04 "Hg10 mi
7:50 PM77 °FSunny.No wind57%30.04 "Hg10 mi
6:50 PM81 °FSunny.6 mph45%30.03 "Hg10 mi
5:45 PM82 °FSunny.No wind42%30.02 "Hg10 mi
4:50 PM82 °FSunny.6 mph45%30.04 "Hg10 mi
3:45 PM82 °FSunny.No wind42%30.04 "Hg10 mi
2:50 PM81 °FSunny.No wind42%30.04 "Hg10 mi
1:45 PM81 °FSunny.8 mph42%30.06 "Hg10 mi
12:45 PM79 °FSunny.8 mph48%30.09 "Hg10 mi
11:45 AM75 °FSunny.5 mph50%30.10 "Hg10 mi
Weather by CustomWeather, © 2014

See weather overviewHow to use our weather pages